Total_Precipitation_Accumulation
0.49 0.54 0.63 0.77 0.90 1.01 1.11 1.21 1.37 1.41 1.58 1.69 1.69 1.65 1.75 1.78 1.82 1.85 1.77 1.65 1.53 1.39 1.24 1.10 1.00 0.98 0.91 0.84 0.74 0.67 0.67 0.66 0.65 0.66 0.61 0.57 0.52 0.47 0.42 0.45 0.58 0.69 0.71
0.58 0.60 0.72 0.86 0.91 0.93 1.05 1.18 1.31 1.35 1.40 1.42 1.45 1.50 1.53 1.61 1.68 1.76 1.83 1.82 1.71 1.54 1.42 1.28 1.12 0.99 0.95 0.90 0.83 0.75 0.69 0.66 0.61 0.64 0.68 0.61 0.56 0.49 0.39 0.33 0.40 0.50 0.60
0.52 0.53 0.65 0.87 0.95 0.93 1.00 1.12 1.25 1.30 1.41 1.50 1.58 1.63 1.75 1.79 1.72 1.65 1.71 1.77 1.73 1.62 1.50 1.40 1.31 1.19 1.06 0.98 0.93 0.88 0.81 0.75 0.67 0.60 0.77 0.81 0.62 0.45 0.33 0.30 0.31 0.33 0.38
0.51 0.50 0.58 0.79 0.95 0.92 1.04 1.17 1.29 1.40 1.47 1.60 1.60 1.50 1.47 1.54 1.47 1.46 1.45 1.58 1.71 1.69 1.57 1.54 1.50 1.37 1.23 1.07 0.96 0.96 0.95 0.92 0.87 0.75 0.67 0.66 0.62 0.65 0.48 0.29 0.26 0.24 0.25
0.51 0.50 0.53 0.70 0.89 0.97 1.05 1.23 1.31 1.43 1.56 1.60 1.61 1.48 1.36 1.32 1.40 1.52 1.58 1.55 1.58 1.68 1.64 1.55 1.53 1.46 1.33 1.24 1.14 1.01 0.99 1.00 0.99 0.92 0.80 0.72 0.61 0.57 0.67 0.47 0.30 0.29 0.26
0.52 0.56 0.58 0.68 0.81 0.93 1.05 1.16 1.34 1.39 1.59 1.63 1.60 1.45 1.31 1.24 1.30 1.39 1.58 1.66 1.66 1.68 1.69 1.61 1.56 1.47 1.33 1.26 1.26 1.17 1.07 1.03 1.03 1.00 0.93 0.90 0.85 0.69 0.71 0.65 0.41 0.35 0.33
0.57 0.57 0.57 0.64 0.71 0.84 0.98 1.09 1.22 1.41 1.54 1.65 1.56 1.42 1.29 1.21 1.20 1.25 1.37 1.49 1.58 1.64 1.64 1.62 1.55 1.45 1.36 1.23 1.21 1.23 1.19 1.11 1.12 1.12 1.05 0.98 0.91 0.82 0.84 0.87 0.69 0.51 0.40
0.61 0.60 0.56 0.60 0.68 0.79 0.91 1.05 1.15 1.36 1.53 1.61 1.60 1.49 1.33 1.24 1.20 1.21 1.23 1.29 1.27 1.33 1.46 1.57 1.63 1.47 1.29 1.22 1.19 1.19 1.17 1.17 1.17 1.13 1.10 1.08 0.97 0.93 0.98 1.04 1.11 0.99 0.63
0.63 0.64 0.59 0.62 0.67 0.79 0.88 1.00 1.11 1.26 1.46 1.61 1.66 1.61 1.44 1.33 1.25 1.21 1.20 1.26 1.21 1.13 1.20 1.35 1.51 1.61 1.53 1.36 1.26 1.22 1.16 1.17 1.20 1.18 1.17 1.17 1.07 0.99 0.95 1.00 1.19 1.46 1.21
0.56 0.59 0.58 0.62 0.69 0.80 0.89 0.97 1.09 1.18 1.32 1.47 1.59 1.63 1.60 1.45 1.36 1.31 1.23 1.18 1.20 1.19 1.14 1.15 1.25 1.38 1.49 1.51 1.44 1.36 1.25 1.22 1.19 1.19 1.23 1.25 1.22 1.18 1.10 1.04 1.05 1.23 1.41
0.54 0.55 0.55 0.61 0.66 0.79 0.89 0.93 1.02 1.16 1.29 1.34 1.41 1.53 1.65 1.51 1.43 1.41 1.33 1.22 1.16 1.20 1.20 1.18 1.24 1.31 1.36 1.41 1.47 1.45 1.41 1.39 1.34 1.28 1.30 1.30 1.30 1.38 1.37 1.30 1.23 1.19 1.28
0.53 0.49 0.51 0.58 0.61 0.69 0.83 0.90 0.98 1.03 1.20 1.30 1.33 1.42 1.58 1.59 1.46 1.43 1.41 1.28 1.18 1.17 1.21 1.22 1.25 1.34 1.40 1.41 1.49 1.49 1.45 1.51 1.49 1.39 1.34 1.32 1.34 1.40 1.44 1.52 1.47 1.33 1.25
0.49 0.48 0.48 0.56 0.61 0.65 0.75 0.86 0.95 0.97 1.06 1.25 1.28 1.36 1.47 1.54 1.48 1.42 1.45 1.42 1.36 1.36 1.33 1.35 1.39 1.43 1.47 1.52 1.58 1.62 1.61 1.64 1.64 1.58 1.53 1.42 1.42 1.47 1.44 1.50 1.53 1.44 1.33
0.47 0.44 0.47 0.54 0.60 0.64 0.70 0.78 0.85 0.94 1.02 1.20 1.32 1.33 1.38 1.42 1.43 1.45 1.43 1.52 1.57 1.62 1.66 1.62 1.59 1.60 1.67 1.78 1.86 1.91 1.90 1.83 1.78 1.72 1.68 1.62 1.56 1.56 1.56 1.59 1.55 1.50 1.51
0.44 0.43 0.48 0.54 0.59 0.64 0.68 0.69 0.76 0.83 0.95 1.12 1.23 1.29 1.34 1.45 1.51 1.53 1.56 1.56 1.66 1.71 1.70 1.73 1.73 1.68 1.84 2.14 2.27 2.13 1.95 1.80 1.72 1.64 1.61 1.64 1.75 1.76 1.80 1.88 1.77 1.68 1.74
0.45 0.46 0.49 0.54 0.58 0.62 0.65 0.63 0.66 0.75 0.87 1.04 1.12 1.19 1.32 1.44 1.57 1.58 1.64 1.66 1.68 1.71 1.70 1.69 1.71 1.68 1.75 2.20 2.33 1.94 1.61 1.53 1.58 1.56 1.45 1.43 1.61 1.69 1.77 1.91 1.91 1.92 1.98
0.43 0.44 0.50 0.55 0.59 0.61 0.60 0.61 0.64 0.68 0.76 0.92 1.02 1.09 1.24 1.33 1.42 1.45 1.47 1.52 1.47 1.43 1.48 1.56 1.52 1.49 1.59 1.97 2.06 1.75 1.32 1.22 1.30 1.34 1.31 1.26 1.31 1.52 1.47 1.61 1.68 1.73 1.87
0.42 0.41 0.47 0.51 0.52 0.57 0.60 0.61 0.62 0.66 0.74 0.83 0.93 0.97 1.09 1.21 1.25 1.31 1.33 1.34 1.28 1.26 1.32 1.34 1.27 1.21 1.29 1.67 1.81 1.59 1.19 1.13 1.18 1.22 1.22 1.21 1.22 1.36 1.56 1.62 1.54 1.44 1.52
0.42 0.41 0.44 0.47 0.47 0.52 0.57 0.60 0.62 0.64 0.70 0.77 0.83 0.86 0.94 1.11 1.12 1.19 1.26 1.22 1.24 1.23 1.19 1.16 1.11 1.06 1.11 1.43 1.71 1.57 1.12 1.16 1.17 1.18 1.23 1.19 1.12 1.44 1.67 1.63 1.55 1.42 1.39
0.41 0.42 0.44 0.43 0.46 0.49 0.51 0.54 0.57 0.60 0.66 0.73 0.79 0.80 0.84 0.96 0.97 1.01 1.08 1.10 1.09 1.14 1.16 1.14 1.07 1.03 1.01 1.26 1.64 1.67 1.21 1.20 1.19 1.18 1.21 1.35 1.32 1.49 1.58 1.49 1.53 1.57 1.38
0.46 0.44 0.44 0.46 0.48 0.50 0.52 0.54 0.55 0.57 0.62 0.67 0.72 0.77 0.82 0.89 0.89 0.91 0.95 1.01 1.04 1.07 1.11 1.13 1.07 0.97 0.97 1.08 1.40 1.75 1.45 1.27 1.19 1.18 1.21 1.24 1.43 1.46 1.51 1.50 1.47 1.64 1.50
0.47 0.46 0.47 0.50 0.50 0.50 0.51 0.51 0.56 0.55 0.58 0.65 0.72 0.77 0.81 0.84 0.84 0.87 0.93 0.95 1.03 1.14 1.15 1.11 1.10 1.03 0.99 1.03 1.20 1.51 1.63 1.48 1.27 1.20 1.06 1.08 1.28 1.33 1.44 1.43 1.49 1.57 1.52
0.45 0.45 0.48 0.53 0.53 0.53 0.51 0.50 0.54 0.55 0.57 0.64 0.69 0.77 0.81 0.81 0.85 0.88 0.94 1.00 1.07 1.16 1.16 1.10 1.07 1.06 1.03 1.08 1.28 1.29 1.37 1.48 1.32 1.25 1.30 1.21 1.24 1.25 1.22 1.28 1.39 1.39 1.33
0.42 0.41 0.45 0.51 0.54 0.54 0.54 0.53 0.55 0.56 0.59 0.64 0.66 0.71 0.81 0.86 0.85 0.89 0.93 0.96 1.01 1.15 1.21 1.16 1.13 1.05 1.02 1.13 1.34 1.28 1.22 1.34 1.37 1.36 1.36 1.31 1.28 1.25 1.19 1.19 1.18 1.16 1.23
0.41 0.40 0.43 0.48 0.54 0.54 0.54 0.55 0.59 0.63 0.65 0.65 0.65 0.69 0.78 0.84 0.85 0.87 0.91 0.95 0.95 1.16 1.35 1.26 1.25 1.22 1.23 1.30 1.52 1.50 1.41 1.44 1.47 1.49 1.47 1.38 1.33 1.31 1.21 1.13 1.08 1.11 1.19
0.40 0.40 0.40 0.46 0.50 0.51 0.54 0.58 0.65 0.69 0.70 0.70 0.70 0.72 0.78 0.80 0.81 0.84 0.90 1.00 1.02 1.09 1.10 1.15 1.24 1.20 1.32 1.40 1.36 1.42 1.46 1.49 1.53 1.55 1.50 1.30 1.19 1.16 1.12 1.10 1.08 1.04 1.05